Theta_e
351 357 361 363 362 363 362 361 361 362 362 363 363 363 362 361 361 361 362 362 362 362 358 355 355 355 354 355 356 355 356 354 354 354 354 353 354 351 350 349 350 347 349
355 358 361 362 362 362 362 362 361 360 361 361 362 362 361 361 362 361 361 361 361 358 355 353 353 353 354 354 355 356 354 354 355 353 353 353 354 352 349 348 348 346 348
354 358 358 362 362 362 361 361 360 359 360 360 361 361 361 361 361 361 361 360 359 356 353 352 353 354 354 354 354 355 355 355 356 352 351 350 351 351 349 348 349 348 347
356 357 357 362 362 361 360 360 359 359 359 359 360 360 360 360 360 359 360 359 357 354 352 353 354 355 354 353 353 353 354 354 355 353 347 346 347 349 349 348 348 349 347
355 357 358 362 361 361 360 359 358 359 359 359 359 359 359 360 359 359 359 359 356 353 351 353 354 355 355 354 354 355 355 354 352 351 349 347 346 349 350 350 348 347 347
354 356 360 361 361 360 359 359 358 358 359 359 359 359 359 358 358 358 358 357 355 352 351 353 355 356 356 355 355 354 352 350 346 335 335 337 346 350 351 352 351 348 347
352 355 359 361 360 360 360 360 358 358 358 359 359 359 359 359 358 358 357 356 354 354 352 353 354 356 355 355 354 351 349 346 338 332 332 342 343 349 354 352 353 350 348
351 355 356 359 359 359 360 359 358 357 357 358 359 359 359 359 358 358 357 355 355 354 354 354 355 355 354 353 352 349 347 345 336 331 332 342 344 350 353 354 353 351 349
353 353 353 355 358 359 359 358 358 357 357 357 357 357 357 357 357 357 356 355 355 354 353 354 354 354 353 352 350 348 346 344 334 331 330 337 348 351 353 356 353 351 350
351 352 352 353 354 354 355 359 358 357 357 357 357 357 357 356 356 356 354 354 354 353 352 352 352 351 350 349 347 346 345 343 336 334 333 332 341 350 354 358 355 353 352
348 347 350 351 352 352 352 356 358 358 358 358 357 357 354 352 352 353 353 352 355 354 352 351 350 348 347 346 346 346 345 336 334 333 331 334 342 349 355 357 356 355 354
343 346 348 350 351 350 353 351 352 353 355 354 354 353 351 349 348 351 352 354 352 354 353 351 351 349 347 340 336 337 337 338 335 334 332 338 342 346 356 358 358 356 356
343 345 348 348 351 352 351 352 352 352 353 352 351 351 350 349 349 350 348 349 349 350 348 346 345 343 341 339 337 334 332 330 333 334 335 342 345 344 349 358 359 357 356
342 343 346 348 350 350 351 352 351 350 352 350 352 350 348 346 345 346 346 345 345 345 344 343 340 340 339 339 337 335 333 330 329 332 334 343 345 347 352 357 360 359 357
341 343 344 347 348 349 349 351 349 349 350 350 350 350 349 346 344 345 345 344 343 343 342 340 338 337 337 336 335 334 333 331 330 332 335 341 346 348 351 358 360 360 357
342 344 344 345 347 348 348 349 349 348 350 349 350 350 349 346 344 343 343 343 342 341 341 340 338 335 334 333 332 332 331 331 330 331 333 338 344 348 352 354 358 359 358
325 341 342 343 345 346 346 347 347 348 349 349 348 349 349 349 345 345 342 341 342 341 340 339 338 336 333 331 330 331 330 330 329 330 334 338 340 344 351 352 354 356 358
318 325 338 344 342 343 343 345 345 344 344 345 346 347 349 349 349 346 344 343 343 341 338 337 336 334 332 331 331 330 331 332 332 334 336 339 341 341 345 352 352 354 357
317 332 334 338 339 340 339 341 344 343 341 342 343 343 343 347 349 348 346 345 342 339 337 337 335 334 334 330 329 330 330 331 332 333 335 339 341 342 342 344 349 351 352
327 334 335 337 338 338 336 337 340 344 347 346 342 340 341 341 343 344 345 343 341 338 336 335 334 334 333 333 329 330 331 331 332 332 333 336 341 343 343 345 345 348 349
331 332 334 336 336 335 333 332 332 332 339 343 346 347 347 344 341 339 339 340 340 339 338 337 337 334 332 330 332 332 331 331 330 333 336 336 337 339 344 344 344 344 346
330 332 331 334 333 336 332 328 329 330 331 333 334 336 334 334 338 341 339 338 338 338 337 337 335 334 334 331 330 328 324 328 332 332 333 336 336 339 338 342 344 344 345
324 325 327 328 329 328 325 323 319 319 317 317 320 324 327 331 333 335 334 337 337 337 337 338 337 334 333 332 333 330 322 320 324 331 331 329 330 333 335 340 344 345 345
319 320 322 322 322 322 322 318 316 313 312 315 318 322 324 328 330 331 331 332 333 336 336 337 339 338 335 332 332 333 333 331 322 319 329 330 331 328 328 331 340 342 344
316 318 318 318 318 317 316 315 314 314 315 317 318 319 322 324 327 330 330 330 330 330 332 336 337 337 336 334 333 327 328 326 326 321 317 320 328 328 327 328 333 339 341
313 314 315 316 314 316 317 316 316 316 315 313 315 319 319 322 325 328 328 328 327 327 328 329 332 333 333 333 332 327 326 323 321 321 319 321 322 325 326 327 331 336 339
Wind_Speed
5 10 18 15 16 17 16 15 14 17 16 17 17 18 18 17 17 15 14 13 12 12 12 11 11 11 12 12 12 12 11 11 11 10 9 8 10 9 9 8 8 6 8
13 10 17 15 16 18 18 18 15 14 16 17 17 17 17 16 15 14 13 12 12 12 11 11 12 12 13 13 12 12 11 10 9 9 7 5 10 9 9 9 9 7 9
14 12 13 14 16 17 19 19 18 15 15 15 16 16 16 15 14 13 12 12 12 12 12 12 12 12 12 12 12 11 10 9 8 8 8 3 4 7 8 8 8 7 8
13 12 10 15 15 16 18 18 18 17 16 16 16 16 15 14 14 13 12 12 12 12 12 12 12 11 11 11 10 10 8 8 7 8 4 5 5 7 8 8 7 7 7
12 11 11 15 15 14 18 18 17 17 17 16 16 15 14 13 13 11 10 10 11 11 11 11 11 10 10 10 9 8 7 6 5 5 4 4 3 7 8 8 7 7 7
12 11 15 16 16 15 17 17 17 16 17 16 16 15 14 13 11 10 9 9 9 10 10 10 9 8 9 9 8 7 6 5 4 3 3 5 6 6 9 9 8 8 8
10 9 11 17 17 17 18 18 18 17 16 16 15 15 14 14 11 10 10 9 9 9 10 11 10 8 8 8 8 7 5 5 3 3 4 4 8 10 11 10 9 10 9
12 9 8 14 15 16 16 17 17 16 16 16 15 15 14 14 14 13 12 11 11 11 11 11 11 10 9 8 7 7 7 7 4 4 4 4 9 11 13 10 10 10 10
10 10 7 8 11 14 13 13 13 13 13 12 12 12 12 12 11 11 10 10 10 11 11 12 11 10 9 8 7 7 6 7 4 3 4 2 9 12 14 12 12 12 11
7 9 10 9 9 8 8 13 13 13 13 12 11 10 10 9 9 9 8 7 8 8 8 8 7 5 5 6 6 7 6 7 3 4 4 3 8 14 14 13 14 14 13
4 5 6 8 6 6 6 9 12 15 13 12 11 11 7 3 3 5 5 8 7 7 6 5 5 5 4 5 7 7 8 2 4 3 3 8 10 13 15 14 15 15 15
9 7 6 6 7 6 6 5 5 5 5 5 6 6 5 5 5 5 6 6 5 6 5 3 4 6 5 2 2 6 3 4 4 4 3 10 10 12 13 14 14 14 14
7 7 8 6 7 8 5 4 3 3 3 2 3 4 4 3 3 3 2 3 4 6 3 3 2 2 4 3 3 3 4 4 3 3 6 10 11 13 15 16 15 15 15
8 7 6 7 8 9 5 6 6 6 6 5 7 5 4 3 4 3 3 4 3 3 4 3 2 2 4 5 5 5 4 4 4 3 6 14 12 14 13 17 17 16 17
8 9 10 10 10 9 9 7 7 6 6 7 8 8 5 5 4 2 2 2 2 2 3 3 3 3 4 5 5 6 6 7 7 4 4 12 12 13 14 16 15 14 15
10 12 12 13 12 10 10 9 7 5 6 5 7 8 10 4 4 4 4 4 4 4 4 5 5 5 6 4 7 6 6 6 7 7 5 4 10 13 12 15 16 16 16
9 9 12 12 11 12 11 8 6 6 5 6 7 8 9 7 5 4 4 4 5 5 5 4 4 3 4 3 7 4 4 6 8 8 5 5 6 9 10 12 16 16 14
5 9 7 10 12 12 11 8 6 6 5 4 4 5 6 6 7 6 5 6 4 3 4 5 5 5 5 5 5 3 5 5 9 6 5 5 6 5 6 14 15 13 15
9 8 9 9 11 10 7 6 6 6 4 4 4 3 6 7 8 6 6 5 4 5 5 5 5 5 5 5 5 4 5 7 7 5 7 5 7 6 4 9 13 15 18
7 6 6 7 9 8 6 4 3 3 4 3 3 3 3 4 4 5 4 6 4 5 5 5 6 4 5 4 5 5 3 5 4 5 8 5 6 7 7 9 7 8 16
6 8 9 9 9 10 6 6 3 3 3 2 2 4 3 3 4 5 5 5 5 7 8 8 5 8 6 4 1 3 4 6 6 3 3 5 8 6 7 8 6 6 7
10 10 8 8 10 10 5 3 3 4 3 3 3 5 4 4 3 3 3 4 5 5 6 7 8 5 4 6 3 1 3 2 2 4 3 1 5 5 10 12 10 10 9
8 10 10 9 8 5 8 7 4 4 4 3 2 2 1 2 3 3 2 2 3 3 5 6 6 8 7 4 7 5 1 7 3 3 3 5 5 7 7 13 11 9 8
11 4 6 7 7 5 6 6 5 5 4 2 3 2 2 2 3 4 3 2 1 2 5 6 5 7 6 8 3 7 5 2 3 4 1 4 5 10 13 11 10 8 9
8 7 6 8 8 8 7 7 6 5 3 3 2 4 4 3 3 3 3 3 0 1 3 4 6 5 5 6 6 2 4 1 1 3 5 4 2 7 13 14 12 9 9
6 7 7 6 6 7 7 8 8 8 6 5 4 3 3 2 2 2 3 1 1 1 1 2 4 6 6 6 6 4 5 4 4 5 5 5 7 8 10 12 8 8 7
Wind_Direction
162 152 156 148 147 135 128 121 113 114 115 115 116 119 124 129 133 137 141 138 133 133 130 125 123 118 113 114 118 118 117 121 123 126 125 132 146 131 136 132 123 117 108
133 151 155 147 146 136 132 127 121 115 114 117 118 121 125 128 133 137 139 137 136 135 133 135 135 133 130 130 128 128 129 128 134 135 129 123 157 151 150 142 138 137 129
137 145 157 150 147 141 135 132 129 127 121 122 123 126 129 132 134 137 139 139 141 142 142 143 142 140 135 131 131 131 135 140 142 145 145 143 161 156 156 149 145 141 132
139 143 151 151 146 146 136 132 133 133 131 131 131 133 134 135 138 143 145 146 149 148 149 149 147 144 142 140 141 143 145 150 159 159 152 172 183 175 169 160 153 152 147
144 143 155 152 147 150 139 136 136 136 136 137 137 137 138 139 143 146 146 149 152 152 152 154 154 154 156 154 153 158 160 167 185 200 211 208 208 185 179 172 171 168 167
147 146 156 155 151 150 143 140 141 142 141 142 142 142 144 146 145 145 150 154 158 159 162 162 162 166 168 166 167 172 177 188 213 226 240 230 203 210 190 186 187 191 183
145 148 154 160 158 156 154 151 151 151 150 149 151 152 154 152 154 157 161 163 166 167 172 175 176 184 189 185 184 187 193 216 231 244 253 223 194 202 199 196 203 199 198
145 147 156 167 161 160 161 158 157 157 158 159 161 165 166 168 169 172 174 175 179 180 184 187 190 194 199 200 202 201 211 224 234 240 254 218 187 193 201 199 203 205 206
143 143 151 161 168 165 164 161 159 160 164 166 168 171 175 177 180 182 186 189 191 193 194 198 201 204 209 217 223 224 230 247 239 256 253 228 207 203 202 203 204 207 208
151 161 165 167 168 164 163 167 166 168 171 172 175 177 182 186 190 191 195 201 207 211 215 224 228 238 251 261 269 273 271 264 276 274 276 266 251 227 213 207 205 207 205
175 172 171 168 165 162 160 176 176 178 178 180 182 185 174 169 195 213 212 217 222 227 240 246 243 251 268 281 286 288 290 294 271 269 273 277 281 244 227 216 210 209 208
199 191 182 172 165 153 170 169 159 174 175 175 177 178 176 175 179 184 210 249 259 273 261 250 276 267 240 234 270 300 300 281 278 267 269 280 276 266 245 239 224 219 215
192 189 185 168 163 169 169 149 154 150 160 165 176 177 188 182 193 197 185 202 186 207 205 188 200 228 263 256 238 223 253 260 256 260 258 252 248 254 261 233 226 227 220
177 185 170 169 169 179 152 179 185 181 188 200 205 186 171 182 188 197 199 201 215 199 188 240 250 236 220 251 269 261 234 245 256 254 262 261 245 246 247 235 229 220 225
188 185 185 178 185 184 177 178 179 184 193 199 206 205 188 189 198 193 228 244 256 223 237 210 216 226 223 234 237 245 257 261 262 249 242 265 265 256 249 237 229 233 230
199 203 186 192 190 185 193 183 180 180 185 176 206 214 211 183 180 193 199 209 212 202 203 227 230 219 241 227 249 235 255 264 265 262 260 262 260 257 246 240 235 228 228
206 197 192 188 182 186 194 178 169 174 175 195 205 208 212 206 189 203 218 221 224 213 219 225 225 233 250 245 253 230 239 256 264 267 268 261 279 274 244 240 240 237 232
195 187 175 183 185 185 186 175 163 170 170 170 183 183 190 198 195 203 215 227 227 194 203 227 225 234 240 236 255 224 236 242 254 248 259 266 267 267 255 240 241 244 240
214 169 175 177 186 185 160 153 154 169 176 188 182 188 203 197 200 210 223 226 196 208 215 218 237 218 248 241 244 239 244 255 266 269 259 249 248 258 251 257 243 239 239
206 183 165 167 160 154 134 129 129 158 188 162 185 198 220 217 224 215 230 228 193 208 223 219 224 202 231 248 256 273 253 243 247 241 258 251 251 246 236 245 243 249 240
191 173 175 169 164 153 158 157 158 170 108 85 150 154 155 194 198 209 227 242 229 233 242 226 226 229 230 182 122 253 244 229 235 283 309 283 283 263 235 245 237 241 250
193 188 180 185 173 177 152 103 126 130 110 135 110 100 87 92 114 164 215 236 220 234 232 221 206 231 244 176 178 193 271 341 162 167 167 302 290 305 302 281 250 239 241
204 193 184 186 177 159 124 115 84 66 74 101 105 110 56 127 128 107 71 296 278 240 254 256 230 222 237 202 211 164 203 228 152 196 211 232 274 305 296 299 268 255 227
222 168 158 141 131 120 125 118 127 141 147 158 127 148 200 111 95 90 91 82 353 280 268 269 235 228 220 238 202 240 260 171 184 295 327 248 234 256 261 274 278 270 257
170 173 147 133 131 135 132 126 116 107 119 138 148 161 143 92 84 100 113 117 84 303 283 277 281 241 225 242 229 193 250 322 213 176 263 279 235 237 258 255 261 252 253
118 115 122 134 134 138 132 135 140 146 162 166 191 144 118 132 151 144 114 104 160 248 283 288 275 261 258 246 245 216 217 211 204 191 213 242 233 250 243 254 252 250 252